• In Russia
  • List of Countries
  • For 7 days
  • Water Temperature
  • Satellite Maps
  • Weather Map
  • Weather Widgets
  • user-avatar
    Login

    Hourly Weather Salzburg

    Today, 25 June, Sunday

    Time Temperature Precipitation Wind Pressure Humidity
    00:00 +11°C° 0.8 mm 1 mps 627 mmHg 96%
    01:00 +9°C° 0.8 mm 0 mps 627 mmHg 96%
    02:00 +9°C° 0.5 mm 0 mps 626 mmHg 96%
    03:00 +8°C° 0.5 mm 0 mps 626 mmHg 96%
    04:00 +8°C° 0.5 mm 0 mps 626 mmHg 96%
    05:00 +10°C° 0.8 mm 0 mps 627 mmHg 94%
    06:00 +12°C° 0.8 mm 0 mps 627 mmHg 92%
    07:00 +14°C° 0.8 mm 0 mps 628 mmHg 90%
    08:00 +15°C° 1.2 mm 1 mps 628 mmHg 88%
    09:00 +16°C° 1.2 mm 2 mps 628 mmHg 86%
    10:00 +16°C° 1.2 mm 2 mps 629 mmHg 84%
    11:00 +15°C° 2.4 mm 2 mps 628 mmHg 88%
    12:00 +14°C° 2.4 mm 2 mps 628 mmHg 92%
    13:00 +12°C° 2.4 mm 2 mps 627 mmHg 96%
    14:00 +12°C° 3.5 mm 2 mps 627 mmHg 95%
    15:00 +10°C° 3.5 mm 2 mps 627 mmHg 94%
    16:00 +10°C° 3.5 mm 2 mps 627 mmHg 93%
    17:00 +10°C° 0.4 mm 2 mps 627 mmHg 93%
    18:00 +11°C° 0.4 mm 1 mps 627 mmHg 93%
    19:00 +11°C° 0.4 mm 1 mps 627 mmHg 92%
    20:00 +10°C° 0 mm 1 mps 627 mmHg 92%
    21:00 +9°C° 0 mm 1 mps 627 mmHg 91%
    22:00 +7°C° 0 mm 2 mps 627 mmHg 91%
    23:00 +7°C° 0 mm 2 mps 626 mmHg 91%

    Tomorrow, 26 June, Monday

    Time Temperature Precipitation Wind Pressure Humidity
    00:00 +6°C° 0 mm 2 mps 626 mmHg 90%
    01:00 +6°C° 0 mm 2 mps 626 mmHg 90%
    02:00 +7°C° 0 mm 1 mps 626 mmHg 90%
    03:00 +7°C° 0 mm 1 mps 626 mmHg 90%
    04:00 +6°C° 0 mm 1 mps 626 mmHg 90%
    05:00 +8°C° 0 mm 1 mps 626 mmHg 86%
    06:00 +10°C° 0 mm 1 mps 627 mmHg 83%
    07:00 +11°C° 0 mm 0 mps 628 mmHg 79%
    08:00 +14°C° 0 mm 1 mps 629 mmHg 71%
    09:00 +16°C° 0 mm 1 mps 629 mmHg 62%
    10:00 +20°C° 0 mm 1 mps 630 mmHg 53%
    11:00 +20°C° 0 mm 1 mps 630 mmHg 51%
    12:00 +21°C° 0 mm 1 mps 630 mmHg 49%
    13:00 +22°C° 0 mm 1 mps 630 mmHg 47%
    14:00 +21°C° 0 mm 2 mps 629 mmHg 50%
    15:00 +20°C° 0 mm 2 mps 629 mmHg 52%
    16:00 +20°C° 0 mm 2 mps 629 mmHg 55%
    17:00 +19°C° 0.1 mm 2 mps 628 mmHg 65%
    18:00 +18°C° 0.1 mm 1 mps 628 mmHg 75%
    19:00 +16°C° 0.1 mm 1 mps 627 mmHg 85%
    20:00 +14°C° 0.1 mm 1 mps 627 mmHg 88%
    21:00 +13°C° 0.1 mm 1 mps 626 mmHg 91%
    22:00 +11°C° 0.1 mm 1 mps 626 mmHg 93%
    23:00 +10°C° 0 mm 2 mps 625 mmHg 93%

    Day after tomorrow, 27 June, Tuesday

    Time Temperature Precipitation Wind Pressure Humidity
    00:00 +9°C° 0 mm 2 mps 625 mmHg 93%
    01:00 +9°C° 0 mm 2 mps 625 mmHg 93%
    02:00 +9°C° 0 mm 2 mps 625 mmHg 93%
    03:00 +9°C° 0 mm 2 mps 624 mmHg 93%
    04:00 +9°C° 0 mm 2 mps 624 mmHg 92%
    05:00 +10°C° 0 mm 2 mps 624 mmHg 89%
    06:00 +12°C° 0 mm 1 mps 625 mmHg 85%
    07:00 +14°C° 0 mm 1 mps 625 mmHg 81%
    08:00 +16°C° 0.1 mm 1 mps 626 mmHg 73%
    09:00 +19°C° 0.1 mm 1 mps 626 mmHg 65%
    10:00 +20°C° 0.1 mm 1 mps 627 mmHg 58%
    11:00 +21°C° 0.7 mm 1 mps 627 mmHg 62%
    12:00 +21°C° 0.7 mm 1 mps 626 mmHg 67%
    13:00 +21°C° 0.7 mm 1 mps 626 mmHg 72%
    14:00 +20°C° 1.3 mm 1 mps 626 mmHg 72%
    15:00 +20°C° 1.3 mm 1 mps 626 mmHg 73%
    16:00 +20°C° 1.3 mm 1 mps 625 mmHg 73%
    17:00 +19°C° 0.9 mm 1 mps 625 mmHg 79%
    18:00 +18°C° 0.9 mm 1 mps 624 mmHg 84%
    19:00 +18°C° 0.9 mm 1 mps 624 mmHg 90%
    20:00 +15°C° 0.5 mm 1 mps 624 mmHg 91%
    21:00 +14°C° 0.5 mm 1 mps 623 mmHg 92%
    22:00 +12°C° 0.5 mm 2 mps 623 mmHg 93%
    23:00 +12°C° 0 mm 2 mps 622 mmHg 93%

    28 June, Wednesday

    Time Temperature Precipitation Wind Pressure Humidity
    00:00 +10°C° 0 mm 2 mps 622 mmHg 93%
    01:00 +10°C° 0 mm 2 mps 622 mmHg 92%
    02:00 +10°C° 0 mm 2 mps 621 mmHg 92%
    03:00 +9°C° 0 mm 2 mps 621 mmHg 92%
    04:00 +9°C° 0 mm 2 mps 621 mmHg 92%
    05:00 +12°C° 0 mm 2 mps 621 mmHg 90%
    06:00 +13°C° 0 mm 2 mps 621 mmHg 87%
    07:00 +15°C° 0 mm 2 mps 622 mmHg 85%
    08:00 +16°C° 0 mm 2 mps 622 mmHg 76%
    09:00 +18°C° 0 mm 2 mps 623 mmHg 68%
    10:00 +20°C° 0 mm 2 mps 623 mmHg 60%
    11:00 +21°C° 0.5 mm 2 mps 623 mmHg 59%
    12:00 +21°C° 0.5 mm 2 mps 623 mmHg 58%
    13:00 +21°C° 0.5 mm 3 mps 623 mmHg 57%
    14:00 +21°C° 0.5 mm 3 mps 623 mmHg 59%
    15:00 +21°C° 0.5 mm 3 mps 622 mmHg 61%
    16:00 +20°C° 0.5 mm 3 mps 622 mmHg 63%
    17:00 +19°C° 0.5 mm 3 mps 621 mmHg 70%
    18:00 +17°C° 0.5 mm 2 mps 621 mmHg 76%
    19:00 +16°C° 0.5 mm 2 mps 620 mmHg 83%
    20:00 +15°C° 0.3 mm 2 mps 620 mmHg 85%
    21:00 +13°C° 0.3 mm 2 mps 619 mmHg 88%
    22:00 +12°C° 0.3 mm 2 mps 619 mmHg 90%
    23:00 +12°C° 0 mm 2 mps 618 mmHg 90%

    29 June, Thursday

    Time Temperature Precipitation Wind Pressure Humidity
    00:00 +10°C° 0 mm 2 mps 618 mmHg 90%
    01:00 +10°C° 0 mm 3 mps 618 mmHg 90%
    02:00 +9°C° 0 mm 2 mps 617 mmHg 90%
    03:00 +9°C° 0 mm 2 mps 617 mmHg 91%
    04:00 +8°C° 0 mm 2 mps 617 mmHg 91%
    05:00 +9°C° 0 mm 2 mps 617 mmHg 88%
    06:00 +12°C° 0 mm 2 mps 618 mmHg 84%
    07:00 +13°C° 0 mm 2 mps 618 mmHg 81%
    08:00 +14°C° 0.3 mm 2 mps 619 mmHg 78%
    09:00 +14°C° 0.3 mm 3 mps 619 mmHg 75%
    10:00 +16°C° 0.3 mm 3 mps 620 mmHg 71%
    11:00 +14°C° 1.1 mm 3 mps 620 mmHg 74%
    12:00 +14°C° 1.1 mm 3 mps 620 mmHg 77%
    13:00 +14°C° 1.1 mm 3 mps 620 mmHg 79%
    14:00 +13°C° 1.8 mm 3 mps 619 mmHg 83%
    15:00 +12°C° 1.8 mm 3 mps 619 mmHg 86%
    16:00 +11°C° 1.8 mm 3 mps 619 mmHg 89%
    17:00 +10°C° 1.4 mm 3 mps 619 mmHg 91%
    18:00 +9°C° 1.4 mm 3 mps 619 mmHg 94%
    19:00 +8°C° 1.4 mm 3 mps 619 mmHg 96%
    20:00 +8°C° 1 mm 2 mps 619 mmHg 96%
    21:00 +7°C° 1 mm 2 mps 619 mmHg 97%
    22:00 +6°C° 1 mm 2 mps 619 mmHg 97%
    23:00 +7°C° 0.6 mm 1 mps 619 mmHg 97%

    30 June, Friday

    Time Temperature Precipitation Wind Pressure Humidity
    00:00 +7°C° 0.6 mm 1 mps 620 mmHg 97%
    01:00 +6°C° 0.6 mm 1 mps 620 mmHg 97%
    02:00 +6°C° 0.1 mm 1 mps 620 mmHg 96%
    03:00 +6°C° 0.1 mm 1 mps 620 mmHg 96%
    04:00 +6°C° 0.1 mm 1 mps 620 mmHg 95%
    05:00 +7°C° 0.1 mm 1 mps 620 mmHg 94%
    06:00 +7°C° 0.1 mm 1 mps 621 mmHg 92%
    07:00 +8°C° 0.1 mm 1 mps 621 mmHg 91%
    08:00 +8°C° 0.2 mm 2 mps 621 mmHg 85%
    09:00 +9°C° 0.2 mm 2 mps 622 mmHg 80%
    10:00 +10°C° 0.2 mm 2 mps 622 mmHg 75%
    11:00 +10°C° 0.7 mm 2 mps 622 mmHg 74%
    12:00 +12°C° 0.7 mm 2 mps 622 mmHg 73%
    13:00 +12°C° 0.7 mm 2 mps 622 mmHg 72%
    14:00 +12°C° 1.4 mm 2 mps 622 mmHg 77%
    15:00 +10°C° 1.4 mm 2 mps 621 mmHg 82%
    16:00 +9°C° 1.4 mm 2 mps 621 mmHg 87%
    17:00 +8°C° 1.6 mm 2 mps 621 mmHg 90%
    18:00 +8°C° 1.6 mm 2 mps 621 mmHg 92%
    19:00 +7°C° 1.6 mm 2 mps 621 mmHg 95%
    20:00 +6°C° 2 mm 2 mps 621 mmHg 96%
    21:00 +6°C° 2 mm 2 mps 621 mmHg 96%
    22:00 +5°C° 2 mm 2 mps 621 mmHg 97%
    23:00 +5°C° 1.5 mm 2 mps 621 mmHg 97%
    Show more